Flag for Colombia Weather past 2 weeks in Cartagena, Colombia

Now
86 °F

Broken clouds.


Feels Like: 97 °F
Forecast: 80 / 89 °F
Wind: 13 mph from North

Location: Cartagena / Rafael Nunez

Current Time: Apr 25, 2015 at 10:38:24 AM

Latest Report: Apr 25, 2015 at 10:00 AM


Visibility: N/A

Pressure: 29.84 "Hg

Humidity: 75%

Dew point: 77 °F

Location of CartagenaLocation

Historic Weather in Cartagena — Graph

°F

Cartagena temperature yesterday

Maximum temperature yesterday: 88 °F (at 10:00 AM)
Minimum temperature yesterday: 79 °F (at 4:00 AM)
Average temperature yesterday: 83 °F

Past Weeks' High & Low Weather Summary

 TemperatureHumidityPressure
High91 °F (Apr 13, 11:00 AM)100% (Apr 19, 2:00 PM)29.97 "Hg (Apr 19, 2:00 PM)
Low68 °F (Apr 22, 8:00 PM)59% (Apr 21, 11:00 AM)29.70 "Hg (Apr 10, 4:00 PM)
Average83 °F81%29.80 "Hg
* Reported Apr 10 9:00 AM — Apr 25 9:00 AM, Cartagena, Weather by CustomWeather, © 2015

Note: Actual official high and low records may vary slightly from our data, if they occured in-between our weather recording intervals... More about our weather records

Advertising

Cartagena weather history for previous 24 hours

 ConditionsComfort  
Time TempWeatherWind HumidityBarometerVisibility
9:00 AM
Sat, Apr 25
82 °FScattered clouds.13 mph84%29.85 "HgN/A
8:00 AM82 °FPartly sunny.10 mph84%29.83 "HgN/A
7:00 AM81 °FPartly sunny.7 mph89%29.83 "HgN/A
6:00 AM81 °FScattered clouds.9 mph89%29.80 "Hg4 mi
5:00 AM81 °FPassing clouds.12 mph84%29.79 "Hg6 mi
4:00 AM81 °FPassing clouds.7 mph84%29.80 "Hg5 mi
3:00 AM81 °FPassing clouds.16 mph84%29.79 "Hg5 mi
2:00 AM81 °FPassing clouds.12 mph84%29.81 "Hg5 mi
1:00 AM81 °FPassing clouds.12 mph84%29.81 "HgN/A
12:00 AM81 °FPassing clouds.7 mph84%29.83 "HgN/A
11:00 PM
Fri, Apr 24
81 °FPassing clouds.12 mph84%29.84 "HgN/A
10:00 PM81 °FPassing clouds.12 mph84%29.83 "HgN/A
9:00 PM81 °FPassing clouds.12 mph89%29.81 "HgN/A
8:00 PM81 °FPassing clouds.9 mph84%29.79 "Hg6 mi
7:00 PM82 °FPassing clouds.12 mph84%29.77 "Hg6 mi
6:00 PM82 °FClear.10 mph84%29.76 "Hg5 mi
5:00 PM84 °FClear.14 mph74%29.75 "Hg5 mi
4:00 PM84 °FPassing clouds.17 mph84%29.73 "HgN/A
3:00 PM86 °FPassing clouds.21 mph75%29.74 "HgN/A
2:00 PM86 °FPassing clouds.15 mph75%29.76 "HgN/A
1:00 PM86 °FPassing clouds.16 mph79%29.77 "Hg6 mi
12:00 PM88 °FScattered clouds.14 mph75%29.80 "HgN/A
11:00 AM88 °FPassing clouds.10 mph75%29.81 "HgN/A
10:00 AM88 °FPassing clouds.6 mph70%29.82 "HgN/A
Weather by CustomWeather, © 2015

See weather overviewHow to use our weather pages